Location: Austin
(30.3000°N, 97.7500°W)
Time: 13:29:51
(UTC-05:00)

Cosmos 2228 Rocket - Pass Details

Date: 08 April 2026
Orbit: 613 x 645 km, 82.5° (Epoch: 11 April)

Event Time Altitude Azimuth Distance (km) Brightness Sun altitude
Rises 20:47:09 0° 11° (N) 2,932 6.6 -11.9°
Reaches altitude 10° 20:49:49 10° 26° (NNE) 2,014 5.6 -12.5°
Maximum altitude 20:53:19 22° 78° (ENE) 1,367 4.3 -13.2°
Enters shadow 20:54:22 20° 98° (E) 1,433 4.3 -13.4°
